Погода в Березовке

Россия / Калужская область     54°51′10″N   36°19′00″E
темп.,
°C
ветер,
м/с
пор.,
м/с
влажн.,
%
обл.,
%
осадки,
мм/ч
давл.,
гПа
погр.,
м
20 апреля, вт
вт2000:00+3всв61296100 0.1 1021738
03:00+3всв51297100 0.6 1020578
06:00+3в51297100 0.9 1020567
09:00+4в61289100 1.1 1019590
12:00+5в71189100 0.0 1018707
15:00+3всв51097100 0.0 1017603
18:00+2всв51196100 0.0 1015562
21:00+2всв51197100 0.1 1012610
21 апреля, ср
ср2100:00+1св51197100 0.6 1008460
03:000с4999100 4.7 1005324
06:000сз37100100 3.3 1002221
09:00+1зюз45100100 4.3 1003401
12:00+2зюз5999100 0.0 1004677
15:00+3зюз61093100 0.1 1007795
18:00+3зюз41098100 0.1 1009641
21:00+2ююз369683 0.1 1011127
22 апреля, чт
чт2200:00+3ююз3897100 0.0 1012181
03:00+3ююз4997100 0.0 1013247
06:00+3ююз3897100 0.0 1014260
09:00+7ююз4785100 0.1 1015542
12:00+10юз456461 0.3 10161353
15:00+11ююз455954 0.4 10161206
18:00+11ю36676 0.0 1016411
21:00+6ююв47845 0.0 1017112
23 апреля, пт
пт2300:00+5ююв411865 0.0 1017189
03:00+4ююв49941 0.0 1016169
06:00+5ююв410955 0.0 1016224
09:00+10ю59799 0.3 1015473
12:00+15ююз696543 0.4 10141452
15:00+16ю7115768 2.3 10122009
18:00+14ю71365100 0.8 10121046
21:00+10ююз4888100 2.5 1012246
24 апреля, сб
сб2400:00+8сз0198100 1.2 1011101
03:00+4зсз5695100 5.4 1011547
06:00+3зсз3697100 1.8 1011407
09:00+3з2497100 4.8 1010469
12:00+5юз1381100 0.6 1010704
15:00+7з347077 1.7 10081118
18:00+6зсз6880100 0.9 1008864
21:00+3зсз4108591 1.3 1009489